www.pogodaiklimat.ru

Погода и климат >> Архив погоды >> Россия >> город Москва >> Москва


АРХИВ ПОГОДЫ в Москве

Время (UTC), дата Ветер
(напр.,м/с)
 
Видим.   Явления Облачность Т
(С)
Тd
(С)
f
(%)
Тe
(С)
Тes
(С)
Комфортность P
(гПа)
Po
(гПа)
Тmin
(С)
Tmax
(С)
R
(мм)
S
(см)
09 16.02 штиль 0 10 км 8/0
[Ac trans]
-3.6 -11.1 56 -4 -2 по сезону 1031.3 1010.9
12 16.02 Ю 1 10 км 8/0
[Ac trans Ci fib]
-2.9 -11.1 53 -5 -3 по сезону 1028.9 1008.6
15 16.02 Ю 1 10 км 3/0
[Ac trans]
-4.9 -11.4 60 -7 -7 по сезону 1027.4 1007.0
18 16.02 Ю 1 н/о ясно -5.4 -10.9 65 -7 -7 по сезону 1026.0 1005.5 -2.8
21 16.02 Ю 1 н/о ясно -5.2 -11.0 64 -7 -7 по сезону 1023.6 1003.2
00 17.02 Ю 1 н/о ясно -6.2 -10.5 72 -8 -8 по сезону 1020.9 1000.5
03 17.02 Ю 1 н/о 5/0
[Ci fib]
-5.4 -9.6 72 -8 -8 по сезону 1017.5 997.2 -7.1
06 17.02 ЮЗ 1 10 км 10/10 600 м
[Sc]
-4.6 -8.4 75 -7 -7 по сезону 1015.5 995.3 -7.1 31
09 17.02 Ю 1 4000 м слабый снег 10/4 600 м
[Sc As op]
-3.3 -5.3 86 -6 -5 по сезону 1013.6 993.6
12 17.02 ЮЗ 1 10 км {снег} 10/10 300 м
[Frnb]
-2.1 -4.8 82 -4 -4 по сезону 1012.1 992.2
15 17.02 Ю 1 10 км 10/10 600 м
[Sc]
-1.5 -4.1 82 -4 -4 по сезону 1010.8 990.9 1
18 17.02 ЮЗ 1 н/о 10/10 300 м
[Sc]
-0.8 -3.3 83 -3 -3 тепло 1009.7 990.0 -0.7 1
21 17.02 З 1 н/о слабый снег 10/10 300 м
[Frnb]
-0.4 -1.7 91 -3 -3 тепло 1009.0 989.3
00 18.02 З 1 н/о слабый снег 10/10 200 м
[Frnb Ns]
+0.3 -0.8 92 -2 -2 тепло 1008.4 988.7
03 18.02 З 1 н/о слабый снег 10/10 200 м
[Frnb Ns]
+0.8 -0.3 92 -1 -1 тепло 1008.0 988.4 -0.8 0.6
06 18.02 З 1 4000 м в посл. час дождь {снег} 10/10 300 м
[Frnb]
+1.3 +0.1 92 -1 -1 тепло 1008.5 988.9 -0.8 0.6 32
09 18.02 З 1 4000 м дымка 10/10 300 м
[Frnb]
+2.0 +0.4 89 0 0 тепло 1008.8 989.2
12 18.02 З 2 10 км {дождь} 9/9 600 м
[Sc]
+2.5 +0.3 85 -1 -0 тепло 1008.5 989.0
15 18.02 З 2 4000 м слабый дождь 10/10 300 м
[Frnb]
+1.6 -0.2 88 -2 -2 тепло 1009.1 989.5 0.1
18 18.02 З 1 н/о {дождь} 5/5 600 м
[Sc]
+1.2 -1.3 83 -1 -1 тепло 1009.4 989.8 +2.7 0.1
21 18.02 СЗ 2 н/о 9/9 600 м
[Sc]
+1.0 -3.0 75 -2 -2 тепло 1009.6 990.0
00 19.02 З 2 н/о 10/10 1000 м
[Sc]
+0.8 -2.6 78 -3 -3 тепло 1011.1 991.5
03 19.02 З 2 н/о 10/10 1000 м
[Sc]
+0.6 -2.1 82 -3 -3 тепло 1012.5 992.8 +0.6 0.0
06 19.02 З 2 10 км 10/10 600 м
[Sc]
+0.7 -2.2 81 -3 -3 тепло 1013.0 993.2 +0.2 30
09 19.02 ЮЗ 1 10 км 10/10 600 м
[Sc]
+2.4 -2.2 72 +1 +1 тепло 1012.3 992.7
12 19.02 З 1 10 км 10/10 600 м
[Sc]
+2.2 -2.4 72 +1 +1 тепло 1010.7 991.1
15 19.02 З 3 10 км 10/10 600 м
[Sc]
+1.8 -2.8 71 -2 -2 по сезону 1008.5 989.0
18 19.02 З 2
{11}
н/о слабый снег 10/10 300 м
[Frnb]
+0.7 -0.8 90 -3 -3 по сезону 1006.8 987.3 +2.5 0.3
21 19.02 З 2 н/о слабый снег 10/10 300 м
[Frnb]
+1.1 -0.6 88 -2 -2 тепло 1005.8 986.2
00 20.02 З 2 н/о слабый снег 10/10 300 м
[Frnb]
+1.3 -0.5 88 -2 -2 тепло 1004.6 985.1
03 20.02 З 2 н/о {снег} 10/10 600 м
[Sc]
+1.7 -0.7 84 -2 -2 тепло 1003.7 984.2 +0.7 1
06 20.02 ЮЗ 2
{10}
10 км {снег} 10/10 300 м
[Frnb]
+2.0 -0.7 82 -1 -1 тепло 1002.7 983.3 +0.7 1 28
09 20.02 З 3
{11}
10 км 10/10 300 м
[St]
+2.9 -0.5 78 -1 -1 тепло 1001.9 982.6
12 20.02 З 2 10 км 10/10 300 м
[Frnb]
+3.1 -0.3 78 0 0 тепло 1001.0 981.7
15 20.02 ЮЗ 2 10 км 10/10 600 м
[Sc]
+2.9 -0.7 77 0 0 тепло 999.5 980.2
18 20.02 ЮЗ 2 н/о слабый дождь 10/10 600 м
[Sc]
+2.5 -0.5 81 -1 -1 тепло 997.9 978.6 +3.3 0.0
21 20.02 ЮЗ 1 н/о слабый дождь 10/10 600 м
[Sc]
+1.9 0.0 87 0 0 тепло 995.8 976.5
00 21.02 ЮЗ 1 н/о слабый дождь 10/10 300 м
[Frnb]
+1.3 +0.1 92 -1 -1 тепло 993.1 973.9
03 21.02 ЮЗ 1-10
{10}
н/о слабый дождь 10/10 300 м
[Frnb Ns]
+1.0 0.0 93 -1 -1 тепло 990.0 970.8 +0.9 3
06 21.02 ЮЗ 1
{10}
4000 м слабый снег {дождь} 10/10 300 м
[Frnb Ns]
+1.2 -0.1 91 -1 -1 тепло 987.8 968.7 +0.9 5 26
09 21.02 Ю 1 4000 м слабый дождь со снегом 10/10 300 м
[Frnb Ns]
+1.7 +0.1 89 -0 -0 тепло 987.0 967.8
12 21.02 ЮЗ 2 4000 м слабый дождь со снегом 10/10 300 м
[Frnb Ns]
+1.5 +0.2 91 -2 -2 по сезону 985.9 966.8
15 21.02 ЮЗ 1 4000 м слабый снег {дождь} 10/10 300 м
[Frnb Ns]
+1.0 +0.1 94 -1 -1 тепло 985.6 966.4 5
18 21.02 З 1 н/о слабый дождь со снегом 10/10 300 м
[Frnb Ns]
+1.3 +0.3 93 -1 -1 тепло 986.2 967.1 +1.7 4
21 21.02 З 1 н/о в посл. час дождь со снегом 10/10 300 м
[Frnb]
+1.2 +0.4 94 -1 -1 тепло 987.9 968.7
00 22.02 штиль 0 н/о дымка {снег, дождь} 10/10 200 м
[Frnb]
+1.1 +0.4 95 -0 -0 тепло 989.9 970.7
03 22.02 С 1 н/о слабый снег {дождь} 10/10 600 м
[Sc]
+0.9 -0.1 93 -1 -1 тепло 991.8 972.5 +0.7 1
06 22.02 С 3 4000 м слабый ливневой снег 10/10 300 м
[Cb cap]
-2.3 -4.1 87 -7 -7 по сезону 995.5 975.9 -2.3 1 25
09 22.02 С 3 10 км в посл. час ливневой снег 10/10 300 м
[Frnb]
-3.9 -6.3 83 -9 -9 по сезону 997.9 978.2
12 22.02 С 2 10 км {ливн. осадки} 10/10 600 м
[Sc]
-4.6 -7.7 79 -9 -9 прохладно 999.2 979.4
15 22.02 С 1 10 км 10/10 1000 м
[Sc]
-6.4 -9.7 77 -9 -9 по сезону 1000.9 980.9 1
18 22.02 С 1 н/о слабый снег 10/10 600 м
[Sc]
-7.4 -10.3 80 -10 -10 по сезону 1000.4 980.3 -2.3 0.7
21 22.02 В 1 н/о {снег} 10/10 1000 м
[Sc]
-6.6 -9.6 79 -9 -9 по сезону 999.3 979.3
00 23.02 Ю 1 н/о {снег} 10/10 1000 м
[Sc]
-5.3 -9.0 75 -7 -7 по сезону 997.2 977.4
03 23.02 ЮВ 2 н/о дымка 10/10 300 м
[Frnb]
-4.6 -6.4 87 -9 -9 по сезону 994.5 974.7 -7.4 0.0
06 23.02 ЮВ 1 4000 м слабый снег 10/10 300 м
[Frnb Ns]
-3.4 -4.6 91 -6 -6 по сезону 992.1 972.5 -7.4 0.3 25

 

Местоположение метеостанции Москва (город Москва, Россия): широта 55.83 долгота 37.62 высота над уровнем моря 156 м.

В архиве по умолчанию представлена погода в Москве за последнюю неделю. Архивные данные за месяц целиком и за предыдущие месяцы, начиная с января 2011 года, Вы можете получить, выбрав интересующий диапазон дат из раскрывающегося списка и нажав кнопку "Ввод!".

Внимание! Время в таблицах - всемирное. Для получения местного времени необходимо прибавить поправку, которая в Москве равна 3 ч.

Смотрите также архив погоды в соседних городах и на ближайших метеорологических станциях:

Погода в Москве (Балчуг) (город Москва, Россия) (9 км)
Погода в Москве (Тушино) (город Москва, Россия) (12 км)
Погода в Москве (Строгино) (город Москва, Россия) (14 км)
Погода в Шереметьево (Московская область, Россия) (20 км)
Погода в Немчиновке (город Москва, Россия) (21 км)
Погода в Подмосковной (Московская область, Россия) (29 км)
Погода в Внуково (Московская область, Россия) (33 км)
Погода в Михайловском (Московская область, Россия) (49 км)
Погода в Ново-Йерусалиме (Московская область, Россия) (51 км)
Погода в Домодедово (Московская область, Россия) (51 км)

Пояснения к столбцам:

Ветер - указаны скорость ветра в м/с - средняя за 10 мин, порывы в срок и между сроками (в фигурных скобках) и направление, откуда дует ветер: С - северный, СВ - северо-восточный, В - восточный, ЮВ - юго-восточный, Ю - южный, ЮЗ - юго-западный, З - западный, СЗ - северо-западный.
Видимость - горизонтальная дальность видимости в метрах или километрах. При видимости от 1 до 10 км при отсутствии осадков обычно наблюдается дымка, при ухудшении видимости до 1 км и менее - туман. В сухую погоду видимость может ухудшаться дымом, пылью или мглою.
Явления - указаны атмосферные явления, наблюдавшиеся в срок или в последний час перед сроком; фигурными скобками обозначены явления, наблюдавшиеся между сроками (за 1-3 часа до срока); квадратными скобками обозначены град или гололедные отложения с указанием их диаметра в мм.
Облачность - указаны через наклонную черту общая и нижняя облачность в баллах и высота нижней границы облаков в метрах; квадратными скобками обозначены формы облаков: Ci - перистые, Cs - перисто-слоистые, Cc - перисто-кучевые, Ac - высококучевые, As - высокослоистые, Sc - слоисто-кучевые, Ns - слоисто-дождевые, Cu - кучевые, Cb - кучево-дождевые. Подробнее классификацию облаков см. в Атласе облаков (PDF).
T - Температура воздуха - температура, измеренная на высоте 2 м над землей.
Td - Температура точки росы - температура, при понижении до которой содержащийся в воздухе водяной пар достигнет насыщения.
f - Относительная влажность воздуха - влажноcть воздуха, измеренная на высоте 2 м над землей.
Te - Эффективная температура - температура, которую ощущает одетый по сезону человек в тени. Характеристика душности погоды. При расчете учитывается влияние влажности воздуха и скорости ветра на теплоощущения человека.
Tes - Эффективная температура на солнце - температура, которую ощущает человек, с поправкой на солнечный нагрев. Характеристика знойности погоды. Зависит от высоты солнца над горизонтом, облачности и скорости ветра. Ночью, в пасмурную погоду, а также при ветре 12 м/с и более поправка равна нулю.
P - Атмосферное давление - приведенное к уровню моря атмосферное давление.
Po - Атмосферное давление - измеренное на уровне метеостанции атмосферное давление.
Tmin - Минимальная температура - минимум температуры воздуха на высоте 2 м над землей.
Tmax - Максимальная температура - максимум температуры воздуха на высоте 2 м над землей.
R - Количество осадков - Количество выпавших осадков, мм. При наведении курсора мыши на число - период времени, за который выпало указанное количество осадков.
S - Снежный покров - Высота снежного покрова, см. При наведении курсора мыши на число - состояние снежного покрова и степень покрытия местности в баллах.